Location: Newark
(49.3667°N, 21.6167°E)
Time: 23:17:48
(UTC+00:00)

Envisat - Pass Details

Date: 08 December 2019
Orbit: 764 x 766 km, 98.1° (Epoch: 21 January)

Event Time Altitude Azimuth Distance (km) Brightness Sun altitude
Rises 17:10:42 0° 190° (S) 3,221 6.5 -24.3°
Reaches altitude 10° 17:13:12 10° 200° (SSW) 2,300 5.8 -24.7°
Maximum altitude 17:17:47 34° 265° (W) 1,254 4.6 -25.4°
Drops below altitude 10° 17:22:24 10° 330° (NNW) 2,316 5.8 -26.2°
Sets 17:24:56 0° 339° (NNW) 3,247 6.4 -26.6°
